Wind_Speed
48 46 44 44 43 42 40 42 41 41 44 44 41 37 31 26 24 30 67 79 87 88 86 91 90 90 94 95 90 89 94 91 93 92 92 93 93 94
53 53 53 53 52 50 49 48 45 45 41 41 43 43 44 41 36 35 37 56 72 92 96 95 93 97 96 96 96 98 98 98 98 99 99 101 98 99
60 60 59 59 60 61 61 59 57 53 52 47 43 42 44 46 50 48 46 48 58 81 87 89 96 100 100 101 103 107 107 108 109 106 107 105 106 105
68 69 68 67 67 66 66 65 64 63 63 61 57 54 53 51 49 53 57 59 58 62 71 75 80 91 87 86 87 97 101 109 104 105 103 101 96 97
76 76 75 74 75 75 76 77 75 74 73 71 71 68 64 61 62 60 57 62 69 72 72 75 82 87 85 84 85 85 90 99 100 102 95 88 83 80
84 84 84 85 84 83 83 83 83 83 82 82 82 81 78 75 72 70 70 69 67 72 78 82 85 86 88 91 91 92 90 89 90 89 89 87 85 83
94 94 95 94 94 94 94 92 90 90 90 90 89 90 91 89 85 83 82 81 80 80 78 79 84 89 93 95 96 95 95 95 96 96 96 94 94 92
105 105 105 104 104 104 104 103 101 99 98 97 97 97 97 96 94 93 92 92 91 90 89 89 88 87 89 91 94 97 101 103 102 102 102 101 101 98
115 117 116 115 114 112 109 107 108 106 104 103 103 104 103 102 100 100 99 97 96 95 94 96 96 97 95 93 93 96 97 101 102 103 107 106 105 105
123 123 122 121 120 117 114 112 113 112 111 110 109 109 108 109 106 105 103 104 104 104 101 103 107 107 106 105 103 103 102 103 103 104 103 106 109 108
129 126 124 122 125 125 121 120 122 120 118 117 116 116 116 115 114 115 114 111 112 111 112 111 115 115 116 117 116 115 113 112 113 112 111 109 108 111
132 131 129 126 127 126 124 124 123 126 123 121 120 120 121 122 123 122 123 121 119 120 122 123 123 124 123 125 124 122 119 119 117 115 113 114 116 116
133 131 129 126 124 125 124 121 122 124 124 122 119 118 121 121 121 122 122 123 125 125 128 129 126 128 128 128 129 128 127 125 122 121 121 120 119 119
125 124 122 121 116 117 118 115 115 115 114 115 113 114 116 118 118 117 118 118 117 117 121 125 126 129 128 126 125 130 127 125 123 122 122 122 120 119
120 119 118 117 112 112 113 110 107 106 105 107 107 107 109 107 108 109 110 110 110 111 116 120 120 122 122 119 120 121 124 126 125 125 123 121 120 117
114 112 112 112 111 107 106 105 101 99 99 100 101 100 102 104 106 107 107 106 104 108 110 111 112 111 111 111 110 111 116 115 121 116 113 111 111 112
103 104 106 106 104 103 100 97 93 89 91 93 92 92 94 98 99 98 98 101 100 101 104 104 101 100 99 99 98 98 100 99 99 106 104 102 102 108
88 86 89 92 91 91 90 88 85 82 82 81 80 82 87 90 91 90 91 92 92 93 93 94 91 89 89 91 90 92 93 92 98 102 105 99 95 100
78 78 77 79 79 80 80 77 75 75 73 73 74 75 78 80 80 81 82 83 82 81 83 86 87 88 85 77 83 79 81 88 88 89 92 91 83 91
70 70 69 69 70 71 72 69 67 66 66 67 68 70 72 73 74 75 76 76 76 74 76 77 80 82 76 72 73 78 77 76 77 81 85 87 86 87
62 62 61 61 61 62 62 60 59 58 59 60 61 61 64 65 66 66 65 65 65 65 66 70 71 65 63 60 63 72 72 67 69 74 77 78 81 81
55 55 54 53 54 54 53 52 52 52 53 53 53 53 53 53 56 57 57 57 56 58 59 61 61 57 56 56 60 62 60 59 60 66 70 70 70 73
48 49 48 46 46 46 47 47 47 47 47 46 46 46 46 46 46 46 47 47 48 50 50 52 51 50 52 53 54 54 54 53 53 55 58 58 61 62
Wind_Direction
303 302 301 300 299 295 292 287 285 283 282 280 277 276 270 254 234 225 224 227 222 225 227 230 232 234 236 240 242 243 245 247 250 253 256 258 262 263
298 297 297 296 295 295 295 294 291 288 282 279 278 273 267 264 255 240 231 227 229 228 231 233 236 238 240 245 248 248 249 250 254 255 258 261 263 264
294 292 291 291 291 292 293 293 292 290 288 283 279 276 272 265 259 253 245 235 234 234 234 238 238 237 241 247 249 250 251 253 254 255 256 262 263 264
291 292 292 291 290 291 290 289 288 287 287 286 282 279 278 273 266 257 250 246 240 238 239 241 241 241 246 248 249 249 252 252 255 257 261 266 269 269
290 290 289 289 290 290 290 289 288 287 286 284 283 282 278 276 275 272 260 251 247 244 241 239 241 243 246 249 249 250 251 254 257 259 259 260 261 261
290 289 289 288 287 287 287 286 286 285 285 284 283 283 281 280 277 273 271 266 257 249 248 247 245 244 244 246 247 249 250 252 254 256 257 258 259 260
289 288 288 288 287 286 285 283 283 281 280 280 279 278 278 278 277 275 272 269 268 264 255 249 247 248 249 249 250 250 250 251 252 254 255 257 258 259
289 288 287 286 285 285 286 283 280 278 277 276 275 276 276 276 276 275 274 271 269 267 265 264 259 252 247 247 249 250 252 252 252 253 253 254 254 254
287 286 285 284 283 282 281 279 278 276 274 274 274 273 273 271 271 272 272 271 270 266 263 263 263 263 261 257 254 250 250 249 250 252 253 253 253 254
284 283 282 282 281 279 278 278 276 275 274 273 272 271 270 271 270 270 269 267 266 266 265 263 263 262 261 262 262 261 259 256 254 253 252 253 250 250
283 281 278 277 277 277 277 276 275 275 273 273 272 271 270 270 270 269 267 265 262 261 262 260 261 262 262 262 261 260 260 260 260 260 256 254 253 251
282 281 280 278 278 278 277 276 276 273 272 271 270 268 268 268 268 266 265 265 263 262 262 261 260 260 261 262 262 261 260 259 258 257 257 259 258 254
282 281 281 280 279 278 277 277 275 273 272 272 270 269 268 267 267 266 265 265 264 262 262 262 261 260 259 258 260 260 260 260 260 259 258 258 257 256
282 281 280 279 278 277 276 275 273 272 271 270 269 269 268 267 267 267 264 264 264 263 263 262 260 260 260 259 257 258 258 258 258 258 258 258 256 255
281 280 279 279 277 276 274 273 272 271 270 269 268 267 267 267 266 265 264 263 263 263 262 260 259 259 259 259 259 259 260 260 260 260 260 259 259 257
280 279 278 277 277 275 274 273 273 272 271 269 268 268 267 267 266 265 265 265 264 262 262 262 262 262 261 261 260 259 259 259 261 261 259 259 258 257
277 277 276 275 275 276 276 276 275 272 271 269 269 268 267 265 265 265 265 264 264 263 264 264 263 262 262 262 262 261 261 261 261 262 260 257 255 255
277 275 274 275 275 274 273 274 275 273 272 270 269 267 265 264 263 263 263 263 263 264 264 265 266 264 262 261 260 258 258 256 256 254 255 253 252 253
278 276 275 274 274 274 274 273 272 271 269 268 266 264 264 264 264 263 263 264 264 264 264 264 265 265 265 264 263 261 259 258 256 256 257 259 256 256
277 276 274 273 273 272 272 272 271 269 267 265 264 264 263 264 264 264 264 264 265 265 264 264 263 262 265 265 263 261 257 255 253 253 253 254 253 252
276 274 274 274 272 271 272 273 271 269 267 265 264 263 263 265 265 266 264 263 263 263 263 263 265 266 263 260 256 257 258 254 253 254 253 253 254 255
278 277 276 274 273 273 272 271 270 268 267 266 265 265 264 264 263 262 262 262 262 261 261 263 263 263 262 258 255 256 257 256 251 251 252 252 253 255
278 277 277 275 274 273 273 272 271 270 270 270 269 266 263 263 263 263 263 262 259 258 257 258 259 257 257 256 256 256 257 256 254 252 253 254 253 252
Height
10561 10560 10558 10556 10555 10554 10553 10552 10550 10550 10549 10550 10553 10553 10555 10558 10561 10562 10565 10568 10573 10575 10577 10576 10577 10579 10580 10582 10583 10584 10587 10590 10591 10595 10599 10602 10603 10606
10548 10546 10545 10543 10541 10540 10539 10539 10540 10539 10540 10539 10539 10542 10545 10546 10547 10550 10551 10552 10553 10557 10560 10564 10565 10566 10566 10567 10570 10572 10573 10575 10577 10578 10581 10584 10585 10586
10534 10531 10530 10528 10527 10525 10524 10523 10523 10523 10523 10527 10528 10528 10528 10531 10534 10536 10536 10537 10537 10540 10541 10541 10543 10547 10548 10550 10552 10554 10556 10557 10557 10559 10561 10562 10563 10563
10517 10514 10513 10511 10509 10508 10507 10506 10505 10505 10504 10505 10509 10512 10513 10513 10514 10516 10519 10521 10521 10521 10520 10520 10522 10525 10526 10527 10528 10530 10532 10533 10534 10536 10537 10542 10541 10543
10497 10495 10493 10491 10489 10487 10485 10485 10484 10484 10484 10483 10483 10488 10492 10494 10495 10496 10499 10499 10498 10499 10501 10500 10501 10501 10502 10504 10505 10506 10507 10509 10513 10515 10517 10519 10520 10522
10473 10470 10469 10467 10465 10464 10463 10460 10460 10459 10459 10459 10458 10458 10461 10467 10471 10473 10473 10475 10478 10478 10477 10477 10479 10479 10479 10481 10482 10483 10483 10484 10487 10489 10492 10494 10497 10500
10445 10443 10441 10439 10437 10436 10435 10433 10433 10432 10432 10431 10431 10431 10430 10434 10438 10441 10444 10446 10448 10450 10452 10452 10454 10455 10456 10456 10457 10457 10457 10458 10461 10464 10467 10470 10473 10476
10415 10412 10410 10408 10407 10406 10403 10402 10402 10401 10400 10400 10400 10400 10399 10401 10403 10405 10407 10410 10413 10416 10418 10420 10421 10423 10426 10427 10429 10430 10432 10433 10435 10438 10441 10444 10447 10451
10382 10377 10375 10374 10372 10371 10370 10368 10366 10365 10365 10365 10366 10365 10367 10368 10371 10370 10372 10373 10375 10378 10383 10382 10384 10384 10389 10392 10395 10397 10400 10403 10407 10410 10413 10416 10420 10423
10346 10339 10336 10333 10330 10330 10331 10331 10327 10327 10324 10328 10328 10328 10330 10331 10332 10335 10336 10337 10340 10340 10345 10348 10342 10345 10352 10355 10359 10361 10364 10367 10370 10373 10378 10383 10388 10392
10303 10299 10297 10294 10286 10287 10291 10288 10285 10284 10282 10286 10288 10286 10288 10290 10292 10293 10293 10301 10304 10304 10304 10310 10305 10309 10310 10313 10318 10324 10328 10332 10334 10336 10341 10346 10350 10356
10257 10251 10248 10249 10243 10241 10245 10241 10242 10234 10235 10241 10245 10245 10244 10244 10244 10248 10250 10257 10261 10265 10261 10261 10270 10270 10271 10270 10272 10279 10284 10289 10294 10300 10304 10308 10311 10317
10208 10202 10196 10195 10199 10193 10190 10195 10192 10184 10186 10191 10196 10198 10197 10198 10198 10201 10207 10211 10213 10218 10216 10217 10222 10221 10226 10234 10231 10234 10238 10243 10249 10256 10261 10266 10270 10277
10159 10154 10151 10147 10153 10148 10146 10146 10144 10143 10144 10146 10151 10152 10152 10152 10154 10159 10161 10162 10168 10172 10168 10168 10176 10172 10176 10187 10196 10189 10192 10197 10203 10209 10213 10218 10227 10236
10112 10107 10106 10100 10104 10104 10100 10101 10101 10101 10104 10104 10106 10109 10108 10111 10112 10112 10115 10121 10128 10130 10126 10120 10125 10130 10134 10143 10151 10155 10156 10156 10161 10165 10170 10177 10184 10193
10067 10067 10065 10059 10055 10059 10059 10058 10062 10065 10066 10066 10066 10070 10071 10070 10071 10070 10072 10080 10089 10089 10084 10084 10085 10090 10095 10100 10108 10118 10112 10118 10115 10121 10127 10136 10145 10153
10034 10031 10024 10021 10020 10019 10020 10021 10024 10028 10030 10030 10032 10034 10036 10033 10031 10033 10039 10043 10048 10050 10049 10048 10050 10053 10060 10065 10072 10080 10078 10082 10086 10078 10085 10095 10106 10112
9999 10001 9994 9987 9987 9987 9988 9989 9992 9994 9995 9997 10000 10001 9999 9997 9999 10003 10006 10009 10012 10013 10014 10011 10015 10020 10026 10034 10039 10041 10041 10048 10047 10047 10041 10056 10071 10070
9969 9967 9967 9962 9960 9959 9958 9961 9963 9964 9967 9968 9969 9969 9969 9969 9971 9974 9976 9978 9982 9985 9986 9984 9984 9983 9989 10007 10002 10011 10014 10011 10017 10019 10019 10024 10044 10040
9942 9940 9939 9937 9935 9935 9933 9935 9937 9939 9941 9942 9943 9943 9944 9946 9948 9949 9950 9952 9955 9959 9959 9956 9956 9955 9969 9978 9981 9972 9977 9983 9989 9991 9990 9994 10004 10007
9918 9916 9915 9914 9913 9912 9913 9914 9915 9916 9917 9918 9920 9921 9922 9925 9925 9926 9929 9930 9931 9932 9932 9930 9931 9941 9947 9952 9951 9942 9946 9960 9965 9965 9967 9972 9974 9982
9898 9896 9895 9895 9893 9893 9893 9893 9893 9894 9895 9897 9900 9902 9904 9906 9905 9905 9906 9908 9909 9910 9911 9911 9914 9919 9922 9925 9923 9923 9927 9933 9941 9942 9943 9950 9955 9957
9881 9879 9878 9878 9877 9876 9875 9875 9875 9876 9878 9880 9881 9882 9884 9885 9887 9888 9888 9890 9891 9892 9894 9895 9897 9900 9901 9902 9903 9906 9909 9914 9921 9923 9926 9930 9934 9938